| time (UTC) | temp F | wind direction | speed MPH | gust MPH | rain 1hr in | rain 24hr in | rain mn in | humidity % | barometer mb |
| 20260504214413 | 52 | 268 | 0.0 | 3.0 | 0.00 | 3.11 | 0.00 | 73 | 1018.1 |
| 20260504213323 | 49 | 291 | 0.0 | 1.0 | 0.00 | 3.11 | 0.00 | 83 | 1018.0 |
| 20260504212334 | 48 | 291 | 0.0 | 1.0 | 0.00 | 3.11 | 0.00 | 88 | 1018.1 |
| 20260504211334 | 47 | 291 | 0.0 | 1.0 | 0.00 | 3.11 | 0.00 | 90 | 1018.0 |
| 20260504210343 | 46 | 291 | 0.0 | 1.0 | 0.00 | 3.19 | 0.00 | 91 | 1017.8 |
| 20260504205323 | 45 | 291 | 0.0 | 1.0 | 0.00 | 3.19 | 0.00 | 92 | 1017.7 |
| 20260504204337 | 45 | 291 | 0.0 | 0.0 | 0.00 | 3.19 | 0.00 | 93 | 1017.5 |
| 20260504203339 | 45 | 291 | 0.0 | 1.0 | 0.00 | 3.19 | 0.00 | 92 | 1017.3 |
| 20260504202350 | 44 | 291 | 0.0 | 1.0 | 0.00 | 3.19 | 0.00 | 92 | 1017.2 |
| 20260504201330 | 44 | 291 | 0.0 | 1.0 | 0.00 | 3.19 | 0.00 | 92 | 1017.0 |
| 20260504200330 | 44 | 291 | 0.0 | 1.0 | 0.00 | 3.27 | 0.00 | 90 | 1016.7 |
| 20260504195347 | 44 | 291 | 0.0 | 1.0 | 0.00 | 3.27 | 0.00 | 91 | 1016.4 |
| 20260504194336 | 45 | 291 | 0.0 | 1.0 | 0.00 | 3.27 | 0.00 | 90 | 1016.1 |
| 20260504193333 | 45 | 291 | 0.0 | 1.0 | 0.00 | 3.27 | 0.00 | 90 | 1015.9 |
| 20260504192337 | 46 | 291 | 0.0 | 1.0 | 0.00 | 3.27 | 0.00 | 89 | 1015.8 |
| 20260504191402 | 46 | 291 | 0.0 | 1.0 | 0.00 | 3.27 | 0.00 | 87 | 1015.6 |
| 20260504190339 | 46 | 291 | 0.0 | 1.0 | 0.00 | 3.31 | 0.00 | 86 | 1015.4 |
| 20260504185349 | 47 | 317 | 0.0 | 1.0 | 0.00 | 3.31 | 0.00 | 84 | 1015.4 |
| 20260504184350 | 48 | 320 | 0.0 | 1.0 | 0.00 | 3.31 | 0.00 | 82 | 1015.3 |
| 20260504183330 | 49 | 320 | 0.0 | 1.0 | 0.00 | 3.31 | 0.00 | 78 | 1015.0 |
| 20260504182350 | 50 | 328 | 1.0 | 4.0 | 0.00 | 3.31 | 0.00 | 74 | 1014.8 |
| 20260504181330 | 50 | 302 | 0.0 | 2.0 | 0.00 | 3.31 | 0.00 | 74 | 1014.4 |
| 20260504180337 | 51 | 277 | 0.0 | 5.0 | 0.00 | 3.35 | 0.00 | 70 | 1013.9 |
| 20260504175352 | 51 | 307 | 3.0 | 8.0 | 0.00 | 3.35 | 0.00 | 67 | 1013.6 |
| 20260504174337 | 50 | 350 | 1.0 | 7.0 | 0.00 | 3.35 | 0.00 | 69 | 1013.6 |
| 20260504173331 | 50 | 284 | 1.0 | 6.0 | 0.00 | 3.35 | 0.00 | 72 | 1014.0 |
| 20260504172359 | 51 | 277 | 0.0 | 6.0 | 0.00 | 3.35 | 0.00 | 71 | 1014.1 |
| 20260504171335 | 50 | 129 | 1.0 | 3.0 | 0.00 | 3.35 | 0.00 | 74 | 1014.0 |
| 20260504170330 | 51 | 321 | 0.0 | 3.0 | 0.00 | 3.35 | 0.00 | 76 | 1013.7 |
| 20260504160335 | 51 | 275 | 0.0 | 7.0 | 0.00 | 3.35 | 0.00 | 77 | 1012.1 |
| 20260504150404 | 50 | 292 | 0.0 | 2.0 | 0.00 | 3.35 | 0.67 | 90 | 1009.3 |
| 20260504141327 | 49 | 20 | 1.0 | 2.0 | 0.00 | 3.35 | 0.67 | 97 | 1007.6 |
| 20260504140351 | 50 | 290 | 0.0 | 1.0 | 0.00 | 3.35 | 0.67 | 97 | 1007.7 |
| 20260504130328 | 52 | 291 | 0.0 | 2.0 | 0.00 | 3.35 | 0.67 | 93 | 1006.1 |
| 20260504110351 | 55 | 96 | 0.0 | 1.0 | 0.00 | 3.35 | 0.67 | 98 | 1002.6 |
| 20260504100339 | 56 | 301 | 0.0 | 1.0 | 0.12 | 3.35 | 0.67 | 98 | 1001.4 |
| 20260504081337 | 61 | 260 | 0.0 | 0.0 | 0.24 | 3.23 | 0.65 | 99 | 999.4 |
| 20260504080334 | 61 | 260 | 0.0 | 0.0 | 0.28 | 3.23 | 0.65 | 98 | 999.5 |
| 20260504070323 | 62 | 260 | 0.0 | 0.0 | 1.18 | 2.95 | 0.59 | 97 | 998.4 |
| 20260504050339 | 65 | 260 | 0.0 | 1.0 | 0.00 | 1.77 | 0.35 | 95 | 997.5 |
| 20260504045338 | 65 | 260 | 0.0 | 1.0 | 0.00 | 1.77 | 0.35 | 95 | 997.5 |
| 20260504044343 | 65 | 260 | 0.0 | 1.0 | 0.00 | 1.77 | 0.35 | 95 | 997.7 |
| 20260504043343 | 65 | 260 | 0.0 | 1.0 | 0.00 | 1.77 | 0.35 | 95 | 997.6 |
| 20260504042323 | 65 | 260 | 0.0 | 0.0 | 0.00 | 1.77 | 0.35 | 95 | 998.2 |
| 20260504041352 | 65 | 260 | 0.0 | 1.0 | 0.00 | 1.77 | 0.35 | 96 | 998.3 |
| 20260504040353 | 65 | 260 | 0.0 | 1.0 | 0.00 | 1.77 | 0.35 | 96 | 998.0 |
| 20260504035339 | 65 | 260 | 0.0 | 1.0 | 0.00 | 1.77 | 0.35 | 96 | 998.1 |
| 20260504034342 | 65 | 260 | 0.0 | 0.0 | 0.00 | 1.77 | 0.35 | 97 | 998.0 |
| 20260504033325 | 65 | 260 | 0.0 | 1.0 | 0.00 | 1.77 | 0.35 | 96 | 998.2 |
| 20260504032342 | 65 | 233 | 0.0 | 1.0 | 0.00 | 1.77 | 0.35 | 97 | 997.8 |
| 20260504031327 | 65 | 231 | 0.0 | 0.0 | 0.00 | 1.77 | 0.35 | 97 | 997.8 |
| 20260504030352 | 65 | 231 | 0.0 | 0.0 | 0.00 | 1.77 | 0.35 | 98 | 997.9 |
| 20260504025333 | 65 | 231 | 0.0 | 1.0 | 0.00 | 1.77 | 0.35 | 98 | 997.8 |
| 20260504024342 | 65 | 231 | 0.0 | 1.0 | 0.00 | 1.77 | 0.35 | 97 | 997.9 |
| 20260504023342 | 66 | 231 | 0.0 | 1.0 | 0.00 | 1.77 | 0.35 | 98 | 998.1 |
| 20260504022326 | 66 | 231 | 0.0 | 1.0 | 0.00 | 1.77 | 0.35 | 98 | 998.0 |
| 20260504021328 | 66 | 231 | 0.0 | 1.0 | 0.00 | 1.77 | 0.35 | 98 | 998.0 |
| 20260504020358 | 66 | 231 | 0.0 | 1.0 | 0.04 | 1.77 | 0.35 | 98 | 998.0 |
| 20260504015333 | 66 | 226 | 0.0 | 2.0 | 0.08 | 1.77 | 0.35 | 98 | 997.9 |
| 20260504014336 | 66 | 282 | 0.0 | 1.0 | 0.24 | 1.77 | 0.35 | 98 | 998.0 |
| 20260504013342 | 67 | 282 | 0.0 | 1.0 | 0.43 | 1.77 | 0.35 | 99 | 997.9 |
| 20260504012325 | 67 | 282 | 0.0 | 1.0 | 0.55 | 1.77 | 0.35 | 99 | 998.0 |
| 20260504011327 | 66 | 282 | 0.0 | 0.0 | 0.59 | 1.77 | 0.35 | 99 | 998.1 |
| 20260504010347 | 65 | 282 | 0.0 | 0.0 | 0.55 | 1.73 | 0.35 | 99 | 998.2 |
| 20260504005335 | 64 | 282 | 0.0 | 1.0 | 0.55 | 1.69 | 0.34 | 99 | 998.4 |
| 20260504004334 | 64 | 282 | 0.0 | 1.0 | 0.39 | 1.54 | 0.31 | 99 | 998.3 |
| 20260504003332 | 64 | 282 | 0.0 | 0.0 | 0.24 | 1.34 | 0.27 | 99 | 998.2 |
| 20260504002337 | 64 | 282 | 0.0 | 1.0 | 0.12 | 1.22 | 0.24 | 98 | 998.0 |
| 20260504001339 | 64 | 282 | 0.0 | 0.0 | 0.12 | 1.18 | 0.24 | 98 | 997.9 |
| 20260504000338 | 65 | 282 | 0.0 | 0.0 | 0.16 | 1.18 | 0.24 | 98 | 997.9 |
| 20260503235342 | 65 | 282 | 0.0 | 0.0 | 0.12 | 1.14 | 0.23 | 98 | 997.7 |
| 20260503234333 | 65 | 282 | 0.0 | 0.0 | 0.12 | 1.14 | 0.23 | 98 | 997.7 |
| 20260503233335 | 66 | 282 | 0.0 | 2.0 | 0.08 | 1.10 | 0.22 | 98 | 997.7 |
| 20260503232335 | 66 | 289 | 0.0 | 0.0 | 0.12 | 1.10 | 0.22 | 98 | 997.4 |
| 20260503231409 | 66 | 289 | 0.0 | 0.0 | 0.12 | 1.06 | 0.21 | 98 | 997.3 |
| 20260503230350 | 66 | 289 | 0.0 | 1.0 | 0.16 | 1.02 | 0.20 | 98 | 997.3 |
| 20260503225347 | 66 | 289 | 0.0 | 0.0 | 0.24 | 1.02 | 0.20 | 98 | 997.0 |
| 20260503224349 | 66 | 289 | 0.0 | 0.0 | 0.39 | 1.02 | 0.20 | 98 | 997.1 |
| 20260503223328 | 66 | 289 | 0.0 | 0.0 | 0.55 | 1.02 | 0.20 | 99 | 997.1 |
| 20260503222330 | 66 | 289 | 0.0 | 1.0 | 0.59 | 0.98 | 0.20 | 98 | 996.8 |
| 20260503221339 | 65 | 289 | 0.0 | 2.0 | 0.71 | 0.94 | 0.19 | 98 | 996.8 |
| 20260503220338 | 65 | 284 | 0.0 | 1.0 | 0.63 | 0.87 | 0.17 | 98 | 996.6 |
| 20260503215340 | 65 | 284 | 0.0 | 1.0 | 0.59 | 0.79 | 0.16 | 98 | 996.6 |